Hourly Data Report for November 11, 2017

TORONTO CITY
ONTARIO

43°40'00.000" N
79°24'00.000" W
112.50 m
6158355
71508
XTO

Download Data

Hourly Data (November 2017)
Hourly Data Report for November 11, 2017
TIME
LST
Temp Definition
°C
Dew Point Definition
°C
Rel Hum Definition
%
Precip. Amount Definition
mm

Wind Dir Definition
10's deg

Wind Spd Definition
km/h
Visibility Definition
km
Stn Press Definition
kPa
Hmdx Definition


Wind Chill Definition


Weather Definition


00:00 -5.4 -13.0 55 0.0 LegendMM LegendMM   102.21     LegendNANA
01:00 -5.5 -12.9 56 0.0 LegendMM LegendMM   102.24     LegendNANA
02:00 -5.1 -12.4 56 0.0 LegendMM LegendMM   102.27     LegendNANA
03:00 -5.7 -12.4 59 0.0 LegendMM LegendMM   102.26     LegendNANA
04:00 -5.6 -12.6 58 0.0 LegendMM LegendMM   102.28     LegendNANA
05:00 -5.7 -13.0 56 0.0 LegendMM LegendMM   102.25     LegendNANA
06:00 -5.8 -12.3 60 0.0 LegendMM LegendMM   102.27     LegendNANA
07:00 -5.7 -12.6 58 0.0 LegendMM LegendMM   102.31     LegendNANA
08:00 -5.7 -12.2 61 0.0 LegendMM LegendMM   102.34     LegendNANA
09:00 -4.2 -11.4 57 0.0 LegendMM LegendMM   102.29     LegendNANA
10:00 -2.7 -8.0 67 0.0 LegendMM LegendMM   102.25     LegendNANA
11:00 -1.9 -5.9 74 0.0 LegendMM LegendMM   102.16     LegendNANA
12:00 -0.5 -7.2 61 0.0 LegendMM LegendMM   102.05     LegendNANA
13:00 0.3 -7.0 58 0.0 LegendMM LegendMM   101.95     LegendNANA
14:00 -0.2 -7.8 57 0.0 LegendMM LegendMM   101.90     LegendNANA
15:00 0.4 -5.7 63 0.0 LegendMM LegendMM   101.78     LegendNANA
16:00 0.5 -7.2 56 0.0 LegendMM LegendMM   101.73     LegendNANA
17:00 0.3 -7.0 58 0.0 LegendMM LegendMM   101.67     LegendNANA
18:00 0.7 -8.4 51 0.0 LegendMM LegendMM   101.64     LegendNANA
19:00 1.1 -8.5 49 0.0 LegendMM LegendMM   101.60     LegendNANA
20:00 1.3 -8.2 49 0.0 LegendMM LegendMM   101.56     LegendNANA
21:00 1.5 -8.2 49 0.0 LegendMM LegendMM   101.49     LegendNANA
22:00 1.8 -8.0 48 0.0 LegendMM LegendMM   101.42     LegendNANA
23:00 2.0 -7.0 51 0.0 LegendMM LegendMM   101.38     LegendNANA

Notes on Data Quality.

Legend

  • E = Estimated
  • M = Missing
  • NA = Not Available*
  • [empty] = Indicates an unobserved value
Date modified: